Terug naar catalogus

STARLINK-4701

ActiefCommunicatieVLEO
NORAD 53727·PAYLOAD·🇺🇸 United States

Gelanceerd Sep 5, 2022 vanaf Cape Canaveral Space Force Station

Loading…

Volgende Passages (komende 24 uur)

TLE

VersSource: CelesTrak SupGP

Epoch: Sep 14, 2026, 20:42 UTC

1 53727C 22107AD  26257.86298611 -.00019728  00000+0 -58305-3 0  2578
2 53727  53.1576 111.7929 0001322  90.0467 142.0884 15.34389820    18

Volg STARLINK-4701 in realtime met AllMySat

Download on the App Store